Location: Rioux
(40.7500°S, 175.7500°E)
Time: 10:04:49
(UTC+00:00)

Cosmos 2233 Rocket - Pass Details

Date: 12 June 2024
Orbit: 952 x 990 km, 82.9° (Epoch: 20 July)

Event Time Altitude Azimuth Distance (km) Brightness Sun altitude
Exits shadow 17:33:58 45° 241° (WSW) 1,306 4.2 -22.8°
Maximum altitude 17:35:00 49° 271° (W) 1,234 4.1 -22.6°
Drops below altitude 10° 17:40:55 10° 343° (NNW) 2,705 6.3 -21.5°
Sets 17:43:29 0° 348° (NNW) 3,649 7.0 -21.0°
